Location: Antoign�
(47.0844°N, 0.1131°W)
Time: 03:00:27
(UTC+00:00)

Cosmos 1727 Rocket - Pass Details

Date: 03 March 2021
Orbit: 961 x 996 km, 82.9° (Epoch: 12 April)

Event Time Altitude Azimuth Distance (km) Brightness Sun altitude
Rises 20:27:09 0° 349° (N) 3,658 7.4 -27.3°
Reaches altitude 10° 20:29:40 10° 347° (NNW) 2,708 6.7 -27.7°
Maximum altitude 20:35:49 71° 265° (W) 1,018 4.1 -28.6°
Enters shadow 20:37:45 45° 197° (SSW) 1,288 4.5 -28.9°
